AAL2264 KDAL-KLAX

Flight info

Callsign AAL2264
Flight time N/A
Altitude 36000
Route KKITY5 BRHMA CNX MAXXO DRK J231 HIPPI GABBL HLYWD1
Aircraft A321/M-SDE3FGHIRWY/LB1

Departure

Time N/A
Airport Dallas Love Field (KDAL)

Arrival

Time 2026-04-22 19:42
Airport Los Angeles International Airport (KLAX)
Time Latitude Longitude Altitude Speed Heading
2026-04-22 19:07 34.44605 -114.68644 34871 ft 373 kts 262°
2026-04-22 19:07 34.44284 -114.71770 34420 ft 375 kts 262°
2026-04-22 19:07 34.43975 -114.74874 33975 ft 378 kts 262°
2026-04-22 19:07 34.43667 -114.78048 33477 ft 380 kts 262°
2026-04-22 19:08 34.43363 -114.81237 32970 ft 382 kts 262°
2026-04-22 19:08 34.43060 -114.84449 32476 ft 385 kts 262°
2026-04-22 19:08 34.42759 -114.87676 31991 ft 387 kts 262°
2026-04-22 19:08 34.42398 -114.90915 31527 ft 388 kts 254°
2026-04-22 19:09 34.41600 -114.94031 31169 ft 389 kts 246°
2026-04-22 19:09 34.40226 -114.96867 31319 ft 394 kts 238°
2026-04-22 19:09 34.39193 -114.98685 31053 ft 396 kts 238°
2026-04-22 19:09 34.37155 -115.02359 30742 ft 397 kts 239°
2026-04-22 19:10 34.35632 -115.05152 30515 ft 398 kts 239°
2026-04-22 19:10 34.34108 -115.07963 30271 ft 399 kts 239°
2026-04-22 19:10 34.32581 -115.10775 30014 ft 400 kts 239°
2026-04-22 19:10 34.31043 -115.13588 29737 ft 401 kts 239°
2026-04-22 19:11 34.29493 -115.16406 29467 ft 402 kts 239°
2026-04-22 19:11 34.27974 -115.19196 29182 ft 403 kts 241°
2026-04-22 19:11 34.26683 -115.22191 28904 ft 400 kts 248°
2026-04-22 19:11 34.25749 -115.25356 28636 ft 399 kts 255°
2026-04-22 19:12 34.25065 -115.28598 28377 ft 398 kts 255°
2026-04-22 19:12 34.24380 -115.31832 28114 ft 396 kts 255°
2026-04-22 19:12 34.23692 -115.35054 27855 ft 395 kts 255°
2026-04-22 19:12 34.23004 -115.38261 27597 ft 394 kts 255°
2026-04-22 19:13 34.22316 -115.41460 27338 ft 392 kts 255°
2026-04-22 19:13 34.21631 -115.44644 27088 ft 391 kts 255°
2026-04-22 19:13 34.20949 -115.47817 26849 ft 389 kts 255°
2026-04-22 19:13 34.20271 -115.50977 26594 ft 388 kts 255°
2026-04-22 19:14 34.19604 -115.54088 26353 ft 387 kts 255°
2026-04-22 19:14 34.18928 -115.57229 26110 ft 386 kts 255°
2026-04-22 19:14 34.18252 -115.60359 25867 ft 385 kts 255°
2026-04-22 19:14 34.17574 -115.63485 25628 ft 384 kts 255°
2026-04-22 19:15 34.17129 -115.65543 25481 ft 382 kts 255°
2026-04-22 19:15 34.16331 -115.69721 25159 ft 381 kts 261°
2026-04-22 19:15 34.16016 -115.72892 24927 ft 380 kts 262°
2026-04-22 19:15 34.15716 -115.76057 24708 ft 378 kts 262°
2026-04-22 19:16 34.15415 -115.79202 24490 ft 377 kts 262°
2026-04-22 19:16 34.15114 -115.82295 24272 ft 375 kts 262°
2026-04-22 19:16 34.14809 -115.85417 24116 ft 374 kts 262°
2026-04-22 19:16 34.14503 -115.88535 24136 ft 374 kts 262°
2026-04-22 19:17 34.14195 -115.91651 24144 ft 374 kts 262°
2026-04-22 19:17 34.13888 -115.94768 24157 ft 374 kts 262°
2026-04-22 19:17 34.13585 -115.97884 24163 ft 374 kts 262°
2026-04-22 19:17 34.13284 -116.00996 24166 ft 373 kts 262°
2026-04-22 19:18 34.12981 -116.04108 24169 ft 373 kts 262°
2026-04-22 19:18 34.12678 -116.07219 24174 ft 373 kts 262°
2026-04-22 19:18 34.12370 -116.10330 24175 ft 373 kts 262°
2026-04-22 19:18 34.12066 -116.13403 24171 ft 373 kts 262°
2026-04-22 19:19 34.11759 -116.16511 24175 ft 373 kts 262°
2026-04-22 19:19 34.11451 -116.19621 24172 ft 374 kts 262°
2026-04-22 19:19 34.11142 -116.22736 24166 ft 374 kts 262°
2026-04-22 19:19 34.10831 -116.25847 24113 ft 373 kts 262°
2026-04-22 19:20 34.10519 -116.28958 24108 ft 374 kts 262°
2026-04-22 19:20 34.10202 -116.32082 24110 ft 375 kts 262°
2026-04-22 19:20 34.09877 -116.35165 24102 ft 375 kts 262°
2026-04-22 19:20 34.09543 -116.38280 24109 ft 375 kts 262°
2026-04-22 19:21 34.09206 -116.41406 24109 ft 375 kts 262°
2026-04-22 19:21 34.08868 -116.44531 24105 ft 375 kts 262°
2026-04-22 19:21 34.08533 -116.47656 24113 ft 375 kts 262°
2026-04-22 19:21 34.08197 -116.50782 24113 ft 375 kts 262°
2026-04-22 19:22 34.07863 -116.53874 24099 ft 364 kts 261°
2026-04-22 19:22 34.07541 -116.56833 24100 ft 349 kts 261°
2026-04-22 19:22 34.07227 -116.59723 24100 ft 347 kts 261°
2026-04-22 19:22 34.06941 -116.62605 24114 ft 345 kts 262°
2026-04-22 19:23 34.06681 -116.65447 24111 ft 345 kts 262°
2026-04-22 19:23 34.06424 -116.68329 24117 ft 346 kts 263°
2026-04-22 19:23 34.06168 -116.71209 24121 ft 346 kts 262°
2026-04-22 19:23 34.05905 -116.74092 24113 ft 346 kts 262°
2026-04-22 19:24 34.05639 -116.76977 24141 ft 346 kts 262°
2026-04-22 19:24 34.05371 -116.79861 24131 ft 346 kts 262°
2026-04-22 19:24 34.05100 -116.82745 24139 ft 346 kts 262°
2026-04-22 19:24 34.04825 -116.85631 24137 ft 346 kts 262°
2026-04-22 19:25 34.04549 -116.88520 24143 ft 347 kts 262°
2026-04-22 19:25 34.04220 -116.91389 24239 ft 346 kts 259°
2026-04-22 19:25 34.03835 -116.94257 23729 ft 352 kts 259°
2026-04-22 19:25 34.03445 -116.97166 23208 ft 349 kts 260°
2026-04-22 19:26 34.03069 -117.00007 22788 ft 345 kts 260°
2026-04-22 19:26 34.02696 -117.02855 22317 ft 343 kts 260°
2026-04-22 19:26 34.02338 -117.05687 21841 ft 340 kts 261°
2026-04-22 19:26 34.02001 -117.08505 21367 ft 338 kts 261°
2026-04-22 19:27 34.01674 -117.11308 20878 ft 336 kts 261°
2026-04-22 19:27 34.01355 -117.14092 20401 ft 334 kts 261°
2026-04-22 19:27 34.01035 -117.16862 19909 ft 332 kts 262°
2026-04-22 19:27 34.00714 -117.19611 19459 ft 330 kts 261°
2026-04-22 19:28 34.00500 -117.21420 19119 ft 329 kts 262°
2026-04-22 19:28 34.00174 -117.24145 18635 ft 327 kts 262°
2026-04-22 19:28 33.99743 -117.27728 17966 ft 325 kts 262°
2026-04-22 19:28 33.99423 -117.30382 17702 ft 316 kts 262°
2026-04-22 19:29 33.99112 -117.32984 17279 ft 312 kts 262°
2026-04-22 19:29 33.98906 -117.34730 16965 ft 310 kts 262°
2026-04-22 19:29 33.98610 -117.37270 16462 ft 309 kts 262°
2026-04-22 19:29 33.98310 -117.39832 15955 ft 308 kts 263°
2026-04-22 19:30 33.98108 -117.41554 15627 ft 307 kts 263°
2026-04-22 19:30 33.97710 -117.44929 14963 ft 307 kts 263°
2026-04-22 19:30 33.97420 -117.47478 14473 ft 306 kts 265°
2026-04-22 19:30 33.97467 -117.50016 14041 ft 304 kts 278°
2026-04-22 19:31 33.97898 -117.52507 13548 ft 303 kts 282°
2026-04-22 19:31 33.98345 -117.54977 13087 ft 300 kts 281°
2026-04-22 19:31 33.98784 -117.57429 12603 ft 298 kts 281°
2026-04-22 19:31 33.99212 -117.59843 12163 ft 298 kts 282°
2026-04-22 19:32 33.99642 -117.62269 11979 ft 293 kts 282°
2026-04-22 19:32 34.00065 -117.64673 11990 ft 293 kts 282°
2026-04-22 19:32 34.00479 -117.67075 11835 ft 293 kts 279°
2026-04-22 19:32 34.00570 -117.69522 11417 ft 291 kts 265°
2026-04-22 19:33 34.00326 -117.71899 11185 ft 283 kts 264°
2026-04-22 19:33 34.00093 -117.74253 10748 ft 283 kts 265°
2026-04-22 19:33 33.99869 -117.76606 10332 ft 282 kts 265°
2026-04-22 19:33 33.99645 -117.78958 9817 ft 282 kts 265°
2026-04-22 19:34 33.99422 -117.81263 9214 ft 272 kts 265°
2026-04-22 19:34 33.99206 -117.83466 8633 ft 266 kts 265°
2026-04-22 19:34 33.98991 -117.85672 8053 ft 264 kts 265°
2026-04-22 19:34 33.98779 -117.87865 7832 ft 265 kts 265°
2026-04-22 19:35 33.98565 -117.90085 7614 ft 266 kts 265°
2026-04-22 19:35 33.98350 -117.92297 7309 ft 265 kts 265°
2026-04-22 19:35 33.98135 -117.94492 6984 ft 263 kts 265°
2026-04-22 19:35 33.97918 -117.96676 6653 ft 262 kts 265°
2026-04-22 19:36 33.97701 -117.98857 6304 ft 261 kts 265°
2026-04-22 19:36 33.97484 -118.01030 5967 ft 260 kts 264°
2026-04-22 19:36 33.97268 -118.03188 5644 ft 259 kts 264°
2026-04-22 19:36 33.97058 -118.05303 5321 ft 257 kts 264°
2026-04-22 19:37 33.96845 -118.07439 4997 ft 256 kts 264°
2026-04-22 19:37 33.96634 -118.09558 4655 ft 254 kts 264°
2026-04-22 19:37 33.96424 -118.11662 4330 ft 252 kts 263°
2026-04-22 19:37 33.96215 -118.13756 4003 ft 251 kts 263°
2026-04-22 19:38 33.96007 -118.15839 3683 ft 250 kts 262°
2026-04-22 19:38 33.95800 -118.17909 3379 ft 248 kts 262°
2026-04-22 19:38 33.95593 -118.19961 3057 ft 246 kts 262°
2026-04-22 19:38 33.95389 -118.21976 2749 ft 244 kts 262°
2026-04-22 19:39 33.95185 -118.23995 2429 ft 239 kts 262°
2026-04-22 19:39 33.94992 -118.25913 2128 ft 222 kts 262°
2026-04-22 19:39 33.94812 -118.27693 2016 ft 208 kts 261°
2026-04-22 19:39 33.94651 -118.29305 2025 ft 178 kts 261°
2026-04-22 19:40 33.94502 -118.30773 1520 ft 178 kts 261°
2026-04-22 19:40 33.94352 -118.32222 1183 ft 169 kts 262°
2026-04-22 19:40 33.94215 -118.33565 977 ft 152 kts 263°
2026-04-22 19:40 33.94102 -118.34767 729 ft 141 kts 263°
2026-04-22 19:41 33.93974 -118.35921 551 ft 137 kts 261°
2026-04-22 19:41 33.93863 -118.37004 352 ft 127 kts 262°
2026-04-22 19:41 33.93763 -118.38051 179 ft 123 kts 259°
2026-04-22 19:41 33.93657 -118.39016 94 ft 105 kts 261°
2026-04-22 19:42 33.93577 -118.39774 96 ft 77 kts 263°
2026-04-22 19:42 33.93529 -118.40284 94 ft 44 kts 265°
2026-04-22 19:42 33.93555 -118.40513 97 ft 23 kts 284°
2026-04-22 19:42 33.93597 -118.40704 97 ft 24 kts 268°
2026-04-22 19:43 33.93777 -118.40887 95 ft 20 kts 43°
2026-04-22 19:43 33.93833 -118.40756 96 ft 18 kts 26°
2026-04-22 19:43 33.93947 -118.40786 94 ft 15 kts 342°
2026-04-22 19:44 33.94003 -118.40817 94 ft 7 kts 336°
2026-04-22 19:44 33.94055 -118.40833 92 ft 9 kts 350°
2026-04-22 19:44 33.94089 -118.40803 93 ft 7 kts 73°
2026-04-22 19:44 33.94104 -118.40748 93 ft 4 kts 69°
2026-04-22 19:45 33.94108 -118.40738 94 ft 0 kts 69°